map of HOM home
HOM - Airport
Location
City:  Homer, Alaska, United States
ICAO:PAHO
IATA:HOM
FAA LID:HOM

Details
Type:Airport (Part 139 Class I)
Use:Public/Civil
Latitude:5938'42"N (59.644995)
Longitude:15129'09"W (-151.485807)
Datum:WGS 1984
Elevation:84 ft (26 m)
Variation:15.09E (WMM2015v2 magnetic declination)
-0.28 annual change
Runways:1
Longest:6701 × 150 ft (2042 × 45.5 m), paved

Time
Time Zone:UTC-9 (DST-8)
Local Time:

Weather
METAR:PAHO 041410Z AUTO 06007KT 4SM BR BKN004 OVC008 01/00 A3000 RMK AO2 CIG 003V007 T00060000 TSNO
TAF:PAHO 041306Z 0413/0512 VRB03KT 6SM BR SCT005 BKN015
TEMPO 0413/0416 BKN005
FM041600 VRB03KT 5SM BR SCT015 OVC030
FM041800 VRB04KT P6SM OVC040
FM050400 07006KT 5SM -RASN SCT015 OVC025
FM050800 07006KT 2SM -RA BR BKN015 OVC025

Related Locations
Nearby:
Farthest:FAAF: 10669 mi / 17170 km
Struisbaai [Andrew's Field Airport], WC, ZA

Find:

   beyond  
but within

Other Information
Maps:
NOTAMs:
Links:
Sources:

  
  • flag of United States
  • flag of Alaska
  

Sectional Chart

Flight Planning
at skyvector.com

Satellite Image

Google Maps Satellite view

 

Copyright © 2004-2019 Karl L. Swartz. All rights reserved.
The Great Circle Mapper name and logo are trademarks of the Great Circle Mapper.
All other trademarks mentioned herein belong to their respective owners.
Please see credits for attibutions and further copyright information.

  Follow gcmap on Facebook Follow gcmap on Twitter GCmap on LinkedIn

hCard Microformat

Geo Microformat